Terug naar catalogus

ISS

ZARYA

ActiefWetenschapVLEO
NORAD 25544·PAYLOAD·🇷🇺 Russia🇺🇸 United States

Gelanceerd Nov 20, 1998 vanaf Baikonur Cosmodrome

Loading…

Volgende Passages (komende 24 uur)

TLE

VersSource: CelesTrak SupGP

Epoch: Sep 14, 2026, 18:00 UTC

1 25544C 98067A   26257.75000000 -.00080519  00000+0 -14525-2 0    22
2 25544  51.6292 216.8251 0004912 141.4219   4.8621 15.49121021    18

Volg ISS in realtime met AllMySat

Download on the App Store